Regional Weather Roundup
Issued by NWS

Home | Current Version | Previous Version | Graphics & Text | Print | Product List | Glossary On
Versions: 1 2 3 4 5 6 7 8 9 10 11 12 13 14 15 16 17 18 19 20 21 22 23 24 25 26 27 28
000
ASUS45 KCYS 091010
RWRWY

WYOMING REGIONAL WEATHER ROUNDUP
NATIONAL WEATHER SERVICE CHEYENNE WY
300 AM MST FRI DEC 09 2016

NOTE:  "FAIR" INDICATES FEW OR NO CLOUDS BELOW 12,000 FEET
WITH NO SIGNIFICANT WEATHER AND/OR OBSTRUCTIONS TO VISIBILITY.

WYZ001-091100-
YELLOWSTONE NATIONAL PARK

CITY           SKY/WX    TMP DP  RH WIND       PRES   REMARKS
LK YELLOWSTONE   N/A      8   6  92 CALM      29.99R
W YELLOWSTONE  NOT AVBL

$$
WYZ002>013-054>058-071-098>099-091100-
NORTHERN WYOMING

CITY           SKY/WX    TMP DP  RH WIND       PRES   REMARKS
JACKSON        CLOUDY    18  16  93 SW6       30.03S WCI   9
CODY           FLURRIES   1  -2  87 NE8       30.11R WCI -13
GREYBULL       CLOUDY     8   2  76 W3        30.17R
WORLAND        FAIR       0  -4  83 NE5       30.15R WCI -10
SHERIDAN       CLOUDY     3  -3  76 NW5       30.21R WCI  -6
BUFFALO        MOCLDY     0  -5  79 NW10G28   30.10R HAZE    WCI -16
GILLETTE       CLOUDY     0  -4  83 CALM      30.14S
HULETT         CLOUDY    -4  -8  84 N5        30.18S WCI -15
NEWCASTLE      FAIR       5   0  78 CALM      30.15S

$$
WYZ014>020-022>026-101>103-091100-
CENTRAL WYOMING

CITY           SKY/WX    TMP DP  RH WIND       PRES   REMARKS
BIG PINEY      LGT SNOW   9   6  88 NW3       30.12R FOG
PINEDALE       LGT SNOW  10   7  85 NW7       30.11R WCI   0
DUBOIS         CLOUDY    23  14  68 N20       29.89S WCI   8
LANDER         FAIR       1  -3  83 W5        30.00S WCI  -9
RIVERTON       FAIR       1  -3  83 N5        30.01F WCI  -9
CASPER         FAIR      -9 -12  87 N5        30.03R WCI -20
DOUGLAS        FAIR       4   0  83 S5        30.06S WCI  -5

$$
WYZ021-027>030-104>119-091100-
SOUTHERN WYOMING

CITY           SKY/WX    TMP DP  RH WIND       PRES   REMARKS
EVANSTON       LGT SNOW  30  27  88 SW15      30.11R FOG     WCI  19
FORT BRIDGER   SNOW      25  25 100 W13       30.12R VSB 1/2 WCI  14
ROCK SPRINGS   CLOUDY    10   8  92 CALM      30.09F
DIXON          CLOUDY    30  16  56 SW13G18   30.16S WCI  20
RAWLINS        LGT SNOW  25  18  74 SW24G35   30.03R WCI   9
SARATOGA       PTSUNNY   28  21  74 SW17G26   30.04F WCI  16
LARAMIE        CLOUDY    27  19  72 SW17      29.99F WCI  14
CHEYENNE       FAIR      11   4  73 E9        30.00F WCI  -2
TORRINGTON     CLOUDY    10   3  73 E12       30.10F WCI  -5
PINE BLUFFS    CLOUDY    12   9  85 S6        30.10S WCI   3

$$




USA.gov is the U.S. government's official web portal to all federal, state and local government web resources and services.